Year,Month,Day,Hour,Minute,Value (Times are PST for temperature in C)
2013,05,01,00,00,4.20
2013,05,01,00,01,4.10
2013,05,01,00,02,4.10
2013,05,01,00,03,4.10
2013,05,01,00,04,4.10
2013,05,01,00,05,4.10
2013,05,01,00,06,4.00
2013,05,01,00,07,4.00
2013,05,01,00,08,4.00
2013,05,01,00,09,3.90
2013,05,01,00,10,3.90
2013,05,01,00,11,3.90
2013,05,01,00,12,3.90
2013,05,01,00,13,3.90
2013,05,01,00,14,3.90
2013,05,01,00,15,3.80
2013,05,01,00,16,3.80
2013,05,01,00,17,3.80
2013,05,01,00,18,3.80
2013,05,01,00,19,3.80
2013,05,01,00,20,3.80
2013,05,01,00,21,3.70
2013,05,01,00,22,3.70
2013,05,01,00,23,3.70
2013,05,01,00,24,3.70
2013,05,01,00,25,3.70
2013,05,01,00,26,3.70
2013,05,01,00,27,3.70
2013,05,01,00,28,3.60
2013,05,01,00,29,3.60
2013,05,01,00,30,3.60
2013,05,01,00,31,3.60
2013,05,01,00,32,3.60
2013,05,01,00,33,3.50
2013,05,01,00,34,3.50
2013,05,01,00,35,3.50
2013,05,01,00,36,3.50
2013,05,01,00,37,3.50
2013,05,01,00,38,3.40
2013,05,01,00,39,3.40
2013,05,01,00,40,3.40
2013,05,01,00,41,3.40
2013,05,01,00,42,3.40
2013,05,01,00,43,3.40
2013,05,01,00,44,3.40
2013,05,01,00,45,3.40
2013,05,01,00,46,3.40
2013,05,01,00,47,3.40
2013,05,01,00,48,3.40
2013,05,01,00,49,3.40
2013,05,01,00,50,3.40
2013,05,01,00,51,3.40
2013,05,01,00,52,3.30
2013,05,01,00,53,3.30
2013,05,01,00,54,3.30
2013,05,01,00,55,3.30
2013,05,01,00,56,3.30
2013,05,01,00,57,3.30
2013,05,01,00,58,3.20
2013,05,01,00,59,3.20
2013,05,01,01,00,3.20
2013,05,01,01,01,3.20
2013,05,01,01,02,3.20
2013,05,01,01,03,3.10
2013,05,01,01,04,3.10
2013,05,01,01,05,3.10
2013,05,01,01,06,3.10
2013,05,01,01,07,3.10
2013,05,01,01,08,3.00
2013,05,01,01,09,3.00
2013,05,01,01,10,3.00
2013,05,01,01,11,2.90
2013,05,01,01,12,2.90
2013,05,01,01,13,2.90
2013,05,01,01,14,2.90
2013,05,01,01,15,2.90
2013,05,01,01,16,2.90
2013,05,01,01,17,2.90
2013,05,01,01,18,2.90
2013,05,01,01,19,2.90
2013,05,01,01,20,2.90
2013,05,01,01,21,2.80
2013,05,01,01,22,2.80
2013,05,01,01,23,2.80
2013,05,01,01,24,2.80
2013,05,01,01,25,2.80
2013,05,01,01,26,2.80
2013,05,01,01,27,2.80
2013,05,01,01,28,2.80
2013,05,01,01,29,2.80
2013,05,01,01,30,2.80
2013,05,01,01,31,2.80
2013,05,01,01,32,2.70
2013,05,01,01,33,2.70
2013,05,01,01,34,2.70
2013,05,01,01,35,2.70
2013,05,01,01,36,2.70
2013,05,01,01,37,2.70
2013,05,01,01,38,2.70
2013,05,01,01,39,2.70
2013,05,01,01,40,2.70
2013,05,01,01,41,2.70
2013,05,01,01,42,2.70
2013,05,01,01,43,2.70
2013,05,01,01,44,2.60
2013,05,01,01,45,2.60
2013,05,01,01,46,2.60
2013,05,01,01,47,2.60
2013,05,01,01,48,2.60
2013,05,01,01,49,2.60
2013,05,01,01,50,2.60
2013,05,01,01,51,2.70
2013,05,01,01,52,2.70
2013,05,01,01,53,2.70
2013,05,01,01,54,2.70
2013,05,01,01,55,2.70
2013,05,01,01,56,2.70
2013,05,01,01,57,2.70
2013,05,01,01,58,2.70
2013,05,01,01,59,2.70
2013,05,01,02,00,2.70
2013,05,01,02,01,2.70
2013,05,01,02,02,2.70
2013,05,01,02,03,2.70
2013,05,01,02,04,2.70
2013,05,01,02,05,2.70
2013,05,01,02,06,2.70
2013,05,01,02,07,2.70
2013,05,01,02,08,2.70
2013,05,01,02,09,2.70
2013,05,01,02,10,2.60
2013,05,01,02,11,2.60
2013,05,01,02,12,2.60
2013,05,01,02,13,2.60
2013,05,01,02,14,2.60
2013,05,01,02,15,2.60
2013,05,01,02,16,2.60
2013,05,01,02,17,2.60
2013,05,01,02,18,2.60
2013,05,01,02,19,2.60
2013,05,01,02,20,2.60
2013,05,01,02,21,2.60
2013,05,01,02,22,2.60
2013,05,01,02,23,2.50
2013,05,01,02,24,2.50
2013,05,01,02,25,2.50
2013,05,01,02,26,2.50
2013,05,01,02,27,2.50
2013,05,01,02,28,2.50
2013,05,01,02,29,2.50
2013,05,01,02,30,2.50
2013,05,01,02,31,2.50
2013,05,01,02,32,2.50
2013,05,01,02,33,2.50
2013,05,01,02,34,2.50
2013,05,01,02,35,2.50
2013,05,01,02,36,2.50
2013,05,01,02,37,2.50
2013,05,01,02,38,2.50
2013,05,01,02,39,2.50
2013,05,01,02,40,2.60
2013,05,01,02,41,2.60
2013,05,01,02,42,2.60
2013,05,01,02,43,2.60
2013,05,01,02,44,2.60
2013,05,01,02,45,2.60
2013,05,01,02,46,2.60
2013,05,01,02,47,2.60
2013,05,01,02,48,2.60
2013,05,01,02,49,2.60
2013,05,01,02,50,2.60
2013,05,01,02,51,2.60
2013,05,01,02,52,2.60
2013,05,01,02,53,2.60
2013,05,01,02,54,2.60
2013,05,01,02,55,2.60
2013,05,01,02,56,2.60
2013,05,01,02,57,2.60
2013,05,01,02,58,2.60
2013,05,01,02,59,2.60
2013,05,01,03,00,2.60
2013,05,01,03,01,2.60
2013,05,01,03,02,2.60
2013,05,01,03,03,2.60
2013,05,01,03,04,2.60
2013,05,01,03,05,2.60
2013,05,01,03,06,2.70
2013,05,01,03,07,2.70
2013,05,01,03,08,2.70
2013,05,01,03,09,2.70
2013,05,01,03,10,2.70
2013,05,01,03,11,2.70
2013,05,01,03,12,2.70
2013,05,01,03,13,2.70
2013,05,01,03,14,2.70
2013,05,01,03,15,2.70
2013,05,01,03,16,2.70
2013,05,01,03,17,2.70
2013,05,01,03,18,2.80
2013,05,01,03,19,2.80
2013,05,01,03,20,2.80
2013,05,01,03,21,2.80
2013,05,01,03,22,2.80
2013,05,01,03,23,2.80
2013,05,01,03,24,2.80
2013,05,01,03,25,2.80
2013,05,01,03,26,2.80
2013,05,01,03,27,2.80
2013,05,01,03,28,2.80
2013,05,01,03,29,2.70
2013,05,01,03,30,2.70
2013,05,01,03,31,2.70
2013,05,01,03,32,2.70
2013,05,01,03,33,2.70
2013,05,01,03,34,2.70
2013,05,01,03,35,2.70
2013,05,01,03,36,2.80
2013,05,01,03,37,2.80
2013,05,01,03,38,2.80
2013,05,01,03,39,2.80
2013,05,01,03,40,2.90
2013,05,01,03,41,2.90
2013,05,01,03,42,3.00
2013,05,01,03,43,3.00
2013,05,01,03,44,3.00
2013,05,01,03,45,3.10
2013,05,01,03,46,3.10
2013,05,01,03,47,3.00
2013,05,01,03,48,3.00
2013,05,01,03,49,3.00
2013,05,01,03,50,3.00
2013,05,01,03,51,3.00
2013,05,01,03,52,3.00
2013,05,01,03,53,3.00
2013,05,01,03,54,3.00
2013,05,01,03,55,3.00
2013,05,01,03,56,3.00
2013,05,01,03,57,3.00
2013,05,01,03,58,3.00
2013,05,01,03,59,3.00
2013,05,01,04,00,2.90
2013,05,01,04,01,2.90
2013,05,01,04,02,2.90
2013,05,01,04,03,2.90
2013,05,01,04,04,2.90
2013,05,01,04,05,2.90
2013,05,01,04,06,2.90
2013,05,01,04,07,3.00
2013,05,01,04,08,3.00
2013,05,01,04,09,3.00
2013,05,01,04,10,3.00
2013,05,01,04,11,2.90
2013,05,01,04,12,2.90
2013,05,01,04,13,2.90
2013,05,01,04,14,2.90
2013,05,01,04,15,2.90
2013,05,01,04,16,2.90
2013,05,01,04,17,2.90
2013,05,01,04,18,3.00
2013,05,01,04,19,3.00
2013,05,01,04,20,3.00
2013,05,01,04,21,3.00
2013,05,01,04,22,3.00
2013,05,01,04,23,3.00
2013,05,01,04,24,3.00
2013,05,01,04,25,3.00
2013,05,01,04,26,2.90
2013,05,01,04,27,2.90
2013,05,01,04,28,2.90
2013,05,01,04,29,2.90
2013,05,01,04,30,2.90
2013,05,01,04,31,2.90
2013,05,01,04,32,2.90
2013,05,01,04,33,2.80
2013,05,01,04,34,2.80
2013,05,01,04,35,2.80
2013,05,01,04,36,2.80
2013,05,01,04,37,2.90
2013,05,01,04,38,2.90
2013,05,01,04,39,2.90
2013,05,01,04,40,2.90
2013,05,01,04,41,3.00
2013,05,01,04,42,3.00
2013,05,01,04,43,3.10
2013,05,01,04,44,3.10
2013,05,01,04,45,3.10
2013,05,01,04,46,3.10
2013,05,01,04,47,3.10
2013,05,01,04,48,3.20
2013,05,01,04,49,3.20
2013,05,01,04,50,3.20
2013,05,01,04,51,3.20
2013,05,01,04,52,3.20
2013,05,01,04,53,3.20
2013,05,01,04,54,3.20
2013,05,01,04,55,3.30
2013,05,01,04,56,3.30
2013,05,01,04,57,3.30
2013,05,01,04,58,3.30
2013,05,01,04,59,3.30
2013,05,01,05,00,3.30
2013,05,01,05,01,3.30
2013,05,01,05,02,3.40
2013,05,01,05,03,3.40
2013,05,01,05,04,3.40
2013,05,01,05,05,3.40
2013,05,01,05,06,3.50
2013,05,01,05,07,3.50
2013,05,01,05,08,3.50
2013,05,01,05,09,3.50
2013,05,01,05,10,3.60
2013,05,01,05,11,3.60
2013,05,01,05,12,3.60
2013,05,01,05,13,3.60
2013,05,01,05,14,3.60
2013,05,01,05,15,3.60
2013,05,01,05,16,3.60
2013,05,01,05,17,3.50
2013,05,01,05,18,3.50
2013,05,01,05,19,3.50
2013,05,01,05,20,3.50
2013,05,01,05,21,3.50
2013,05,01,05,22,3.40
2013,05,01,05,23,3.40
2013,05,01,05,24,3.40
2013,05,01,05,25,3.40
2013,05,01,05,26,3.40
2013,05,01,05,27,3.40
2013,05,01,05,28,3.40
2013,05,01,05,29,3.30
2013,05,01,05,30,3.30
2013,05,01,05,31,3.30
2013,05,01,05,32,3.30
2013,05,01,05,33,3.30
2013,05,01,05,34,3.30
2013,05,01,05,35,3.30
2013,05,01,05,36,3.30
2013,05,01,05,37,3.30
2013,05,01,05,38,3.30
2013,05,01,05,39,3.30
2013,05,01,05,40,3.30
2013,05,01,05,41,3.30
2013,05,01,05,42,3.30
2013,05,01,05,43,3.30
2013,05,01,05,44,3.30
2013,05,01,05,45,3.30
2013,05,01,05,46,3.30
2013,05,01,05,47,3.30
2013,05,01,05,48,3.30
2013,05,01,05,49,3.30
2013,05,01,05,50,3.30
2013,05,01,05,51,3.30
2013,05,01,05,52,3.30
2013,05,01,05,53,3.30
2013,05,01,05,54,3.40
2013,05,01,05,55,3.40
2013,05,01,05,56,3.40
2013,05,01,05,57,3.40
2013,05,01,05,58,3.30
2013,05,01,05,59,3.40
2013,05,01,06,00,3.40
2013,05,01,06,01,3.40
2013,05,01,06,02,3.40
2013,05,01,06,03,3.40
2013,05,01,06,04,3.50
2013,05,01,06,05,3.50
2013,05,01,06,06,3.50
2013,05,01,06,07,3.50
2013,05,01,06,08,3.60
2013,05,01,06,09,3.60
2013,05,01,06,10,3.60
2013,05,01,06,11,3.60
2013,05,01,06,12,3.60
2013,05,01,06,13,3.70
2013,05,01,06,14,3.70
2013,05,01,06,15,3.70
2013,05,01,06,16,3.80
2013,05,01,06,17,3.90
2013,05,01,06,18,4.00
2013,05,01,06,19,4.10
2013,05,01,06,20,4.10
2013,05,01,06,21,4.20
2013,05,01,06,22,4.30
2013,05,01,06,23,4.30
2013,05,01,06,24,4.30
2013,05,01,06,25,4.30
2013,05,01,06,26,4.20
2013,05,01,06,27,4.20
2013,05,01,06,28,4.20
2013,05,01,06,29,4.20
2013,05,01,06,30,4.20
2013,05,01,06,31,4.20
2013,05,01,06,32,4.20
2013,05,01,06,33,4.20
2013,05,01,06,34,4.20
2013,05,01,06,35,4.20
2013,05,01,06,36,4.20
2013,05,01,06,37,4.20
2013,05,01,06,38,4.20
2013,05,01,06,39,4.20
2013,05,01,06,40,4.20
2013,05,01,06,41,4.20
2013,05,01,06,42,4.20
2013,05,01,06,43,4.20
2013,05,01,06,44,4.30
2013,05,01,06,45,4.30
2013,05,01,06,46,4.30
2013,05,01,06,47,4.30
2013,05,01,06,48,4.40
2013,05,01,06,49,4.40
2013,05,01,06,50,4.40
2013,05,01,06,51,4.40
2013,05,01,06,52,4.40
2013,05,01,06,53,4.50
2013,05,01,06,54,4.50
2013,05,01,06,55,4.60
2013,05,01,06,56,4.60
2013,05,01,06,57,4.60
2013,05,01,06,58,4.70
2013,05,01,06,59,4.70
2013,05,01,07,00,4.80
2013,05,01,07,01,4.80
2013,05,01,07,02,4.80
2013,05,01,07,03,4.90
2013,05,01,07,04,4.90
2013,05,01,07,05,5.00
2013,05,01,07,06,5.00
2013,05,01,07,07,5.10
2013,05,01,07,08,5.10
2013,05,01,07,09,5.10
2013,05,01,07,10,5.10
2013,05,01,07,11,5.10
2013,05,01,07,12,5.10
2013,05,01,07,13,5.10
2013,05,01,07,14,5.10
2013,05,01,07,15,5.10
2013,05,01,07,16,5.20
2013,05,01,07,17,5.20
2013,05,01,07,18,5.30
2013,05,01,07,19,5.40
2013,05,01,07,20,5.50
2013,05,01,07,21,5.60
2013,05,01,07,22,5.70
2013,05,01,07,23,5.80
2013,05,01,07,24,6.00
2013,05,01,07,25,6.10
2013,05,01,07,26,6.20
2013,05,01,07,27,6.30
2013,05,01,07,28,6.40
2013,05,01,07,29,6.50
2013,05,01,07,30,6.50
2013,05,01,07,31,6.60
2013,05,01,07,32,6.60
2013,05,01,07,33,6.70
2013,05,01,07,34,6.70
2013,05,01,07,35,6.70
2013,05,01,07,36,6.70
2013,05,01,07,37,6.80
2013,05,01,07,38,6.80
2013,05,01,07,39,6.80
2013,05,01,07,40,6.80
2013,05,01,07,41,6.80
2013,05,01,07,42,6.80
2013,05,01,07,43,6.80
2013,05,01,07,44,6.90
2013,05,01,07,45,6.90
2013,05,01,07,46,7.00
2013,05,01,07,47,7.00
2013,05,01,07,48,7.00
2013,05,01,07,49,7.10
2013,05,01,07,50,7.10
2013,05,01,07,51,7.20
2013,05,01,07,52,7.20
2013,05,01,07,53,7.30
2013,05,01,07,54,7.30
2013,05,01,07,55,7.30
2013,05,01,07,56,7.40
2013,05,01,07,57,7.40
2013,05,01,07,58,7.40
2013,05,01,07,59,7.40
2013,05,01,08,00,7.50
2013,05,01,08,01,7.50
2013,05,01,08,02,7.50
2013,05,01,08,03,7.60
2013,05,01,08,04,7.60
2013,05,01,08,05,7.70
2013,05,01,08,06,7.70
2013,05,01,08,07,7.70
2013,05,01,08,08,7.70
2013,05,01,08,09,7.70
2013,05,01,08,10,7.70
2013,05,01,08,11,7.70
2013,05,01,08,12,7.70
2013,05,01,08,13,7.70
2013,05,01,08,14,7.70
2013,05,01,08,15,7.80
2013,05,01,08,16,7.80
2013,05,01,08,17,7.70
2013,05,01,08,18,7.70
2013,05,01,08,19,7.70
2013,05,01,08,20,7.70
2013,05,01,08,21,7.70
2013,05,01,08,22,7.80
2013,05,01,08,23,7.80
2013,05,01,08,24,7.80
2013,05,01,08,25,7.80
2013,05,01,08,26,7.80
2013,05,01,08,27,7.80
2013,05,01,08,28,7.80
2013,05,01,08,29,7.90
2013,05,01,08,30,7.90
2013,05,01,08,31,8.00
2013,05,01,08,32,8.00
2013,05,01,08,33,7.90
2013,05,01,08,34,7.90
2013,05,01,08,35,7.90
2013,05,01,08,36,7.90
2013,05,01,08,37,7.90
2013,05,01,08,38,7.90
2013,05,01,08,39,8.00
2013,05,01,08,40,8.00
2013,05,01,08,41,8.10
2013,05,01,08,42,8.10
2013,05,01,08,43,8.10
2013,05,01,08,44,8.00
2013,05,01,08,45,8.00
2013,05,01,08,46,8.00
2013,05,01,08,47,8.00
2013,05,01,08,48,8.00
2013,05,01,08,49,8.10
2013,05,01,08,50,8.10
2013,05,01,08,51,8.10
2013,05,01,08,52,8.10
2013,05,01,08,53,8.10
2013,05,01,08,54,8.20
2013,05,01,08,55,8.20
2013,05,01,08,56,8.30
2013,05,01,08,57,8.30
2013,05,01,08,58,8.40
2013,05,01,08,59,8.40
2013,05,01,09,00,8.50
2013,05,01,09,01,8.50
2013,05,01,09,02,8.40
2013,05,01,09,03,8.40
2013,05,01,09,04,8.40
2013,05,01,09,05,8.40
2013,05,01,09,06,8.50
2013,05,01,09,07,8.40
2013,05,01,09,08,8.40
2013,05,01,09,09,8.40
2013,05,01,09,10,8.40
2013,05,01,09,11,8.50
2013,05,01,09,12,8.40
2013,05,01,09,13,8.40
2013,05,01,09,14,8.50
2013,05,01,09,15,8.50
2013,05,01,09,16,8.60
2013,05,01,09,17,8.60
2013,05,01,09,18,8.60
2013,05,01,09,19,8.60
2013,05,01,09,20,8.70
2013,05,01,09,21,8.70
2013,05,01,09,22,8.80
2013,05,01,09,23,8.80
2013,05,01,09,24,8.80
2013,05,01,09,25,8.80
2013,05,01,09,26,8.70
2013,05,01,09,27,8.70
2013,05,01,09,28,8.70
2013,05,01,09,29,8.70
2013,05,01,09,30,8.70
2013,05,01,09,31,8.70
2013,05,01,09,32,8.70
2013,05,01,09,33,8.70
2013,05,01,09,34,8.70
2013,05,01,09,35,8.80
2013,05,01,09,36,8.80
2013,05,01,09,37,8.80
2013,05,01,09,38,8.80
2013,05,01,09,39,8.80
2013,05,01,09,40,8.80
2013,05,01,09,41,8.80
2013,05,01,09,42,8.80
2013,05,01,09,43,8.90
2013,05,01,09,44,8.90
2013,05,01,09,45,8.80
2013,05,01,09,46,8.80
2013,05,01,09,47,8.80
2013,05,01,09,48,8.90
2013,05,01,09,49,8.90
2013,05,01,09,50,8.90
2013,05,01,09,51,8.90
2013,05,01,09,52,8.90
2013,05,01,09,53,8.80
2013,05,01,09,54,8.90
2013,05,01,09,55,8.90
2013,05,01,09,56,8.90
2013,05,01,09,57,9.00
2013,05,01,09,58,9.00
2013,05,01,09,59,9.00
2013,05,01,10,00,9.00
2013,05,01,10,01,9.10
2013,05,01,10,02,9.20
2013,05,01,10,03,9.20
2013,05,01,10,04,9.20
2013,05,01,10,05,9.20
2013,05,01,10,06,9.20
2013,05,01,10,07,9.20
2013,05,01,10,08,9.20
2013,05,01,10,09,9.20
2013,05,01,10,10,9.30
2013,05,01,10,11,9.30
2013,05,01,10,12,9.40
2013,05,01,10,13,9.40
2013,05,01,10,14,9.50
2013,05,01,10,15,9.50
2013,05,01,10,16,9.40
2013,05,01,10,17,9.40
2013,05,01,10,18,9.30
2013,05,01,10,19,9.30
2013,05,01,10,20,9.20
2013,05,01,10,21,9.20
2013,05,01,10,22,9.20
2013,05,01,10,23,9.20
2013,05,01,10,24,9.20
2013,05,01,10,25,9.30
2013,05,01,10,26,9.30
2013,05,01,10,27,9.40
2013,05,01,10,28,9.40
2013,05,01,10,29,9.40
2013,05,01,10,30,9.40
2013,05,01,10,31,9.40
2013,05,01,10,32,9.50
2013,05,01,10,33,9.50
2013,05,01,10,34,9.40
2013,05,01,10,35,9.40
2013,05,01,10,36,9.30
2013,05,01,10,37,9.30
2013,05,01,10,38,9.30
2013,05,01,10,39,9.30
2013,05,01,10,40,9.30
2013,05,01,10,41,9.30
2013,05,01,10,42,9.30
2013,05,01,10,43,9.30
2013,05,01,10,44,9.30
2013,05,01,10,45,9.40
2013,05,01,10,46,9.40
2013,05,01,10,47,9.40
2013,05,01,10,48,9.40
2013,05,01,10,49,9.40
2013,05,01,10,50,9.40
2013,05,01,10,51,9.40
2013,05,01,10,52,9.50
2013,05,01,10,53,9.60
2013,05,01,10,54,9.60
2013,05,01,10,55,9.60
2013,05,01,10,56,9.50
2013,05,01,10,57,9.50
2013,05,01,10,58,9.40
2013,05,01,10,59,9.30
2013,05,01,11,00,9.30
2013,05,01,11,01,9.30
2013,05,01,11,02,9.30
2013,05,01,11,03,9.40
2013,05,01,11,04,9.40
2013,05,01,11,05,9.50
2013,05,01,11,06,9.60
2013,05,01,11,07,9.60
2013,05,01,11,08,9.50
2013,05,01,11,09,9.40
2013,05,01,11,10,9.30
2013,05,01,11,11,9.20
2013,05,01,11,12,9.20
2013,05,01,11,13,9.10
2013,05,01,11,14,9.10
2013,05,01,11,15,9.00
2013,05,01,11,16,9.00
2013,05,01,11,17,9.00
2013,05,01,11,18,9.00
2013,05,01,11,19,9.00
2013,05,01,11,20,9.10
2013,05,01,11,21,9.10
2013,05,01,11,22,9.20
2013,05,01,11,23,9.20
2013,05,01,11,24,9.20
2013,05,01,11,25,9.30
2013,05,01,11,26,9.40
2013,05,01,11,27,9.50
2013,05,01,11,28,9.60
2013,05,01,11,29,9.60
2013,05,01,11,30,9.60
2013,05,01,11,31,9.60
2013,05,01,11,32,9.60
2013,05,01,11,33,9.50
2013,05,01,11,34,9.40
2013,05,01,11,35,9.50
2013,05,01,11,36,9.50
2013,05,01,11,37,9.50
2013,05,01,11,38,9.60
2013,05,01,11,39,9.70
2013,05,01,11,40,9.70
2013,05,01,11,41,9.60
2013,05,01,11,42,9.60
2013,05,01,11,43,9.70
2013,05,01,11,44,9.70
2013,05,01,11,45,9.80
2013,05,01,11,46,9.90
2013,05,01,11,47,9.80
2013,05,01,11,48,9.80
2013,05,01,11,49,9.80
2013,05,01,11,50,9.80
2013,05,01,11,51,9.80
2013,05,01,11,52,9.80
2013,05,01,11,53,9.80
2013,05,01,11,54,9.80
2013,05,01,11,55,9.80
2013,05,01,11,56,9.70
2013,05,01,11,57,9.70
2013,05,01,11,58,9.70
2013,05,01,11,59,9.70
2013,05,01,12,00,9.60
2013,05,01,12,01,9.60
2013,05,01,12,02,9.50
2013,05,01,12,03,9.40
2013,05,01,12,04,9.40
2013,05,01,12,05,9.30
2013,05,01,12,06,9.30
2013,05,01,12,07,9.20
2013,05,01,12,08,9.20
2013,05,01,12,09,9.30
2013,05,01,12,10,9.30
2013,05,01,12,11,9.40
2013,05,01,12,12,9.40
2013,05,01,12,13,9.50
2013,05,01,12,14,9.60
2013,05,01,12,15,9.60
2013,05,01,12,16,9.60
2013,05,01,12,17,9.50
2013,05,01,12,18,9.50
2013,05,01,12,19,9.40
2013,05,01,12,20,9.40
2013,05,01,12,21,9.40
2013,05,01,12,22,9.40
2013,05,01,12,23,9.40
2013,05,01,12,24,9.40
2013,05,01,12,25,9.40
2013,05,01,12,26,9.40
2013,05,01,12,27,9.40
2013,05,01,12,28,9.40
2013,05,01,12,29,9.40
2013,05,01,12,30,9.40
2013,05,01,12,31,9.40
2013,05,01,12,32,9.40
2013,05,01,12,33,9.40
2013,05,01,12,34,9.40
2013,05,01,12,35,9.40
2013,05,01,12,36,9.40
2013,05,01,12,37,9.40
2013,05,01,12,38,9.40
2013,05,01,12,39,9.40
2013,05,01,12,40,9.40
2013,05,01,12,41,9.50
2013,05,01,12,42,9.50
2013,05,01,12,43,9.50
2013,05,01,12,44,9.60
2013,05,01,12,45,9.60
2013,05,01,12,46,9.70
2013,05,01,12,47,9.70
2013,05,01,12,48,9.70
2013,05,01,12,49,9.70
2013,05,01,12,50,9.70
2013,05,01,12,51,9.70
2013,05,01,12,52,9.70
2013,05,01,12,53,9.80
2013,05,01,12,54,9.80
2013,05,01,12,55,9.80
2013,05,01,12,56,9.80
2013,05,01,12,57,9.70
2013,05,01,12,58,9.70
2013,05,01,12,59,9.60
2013,05,01,13,00,9.60
2013,05,01,13,01,9.60
2013,05,01,13,02,9.60
2013,05,01,13,03,9.60
2013,05,01,13,04,9.60
2013,05,01,13,05,9.50
2013,05,01,13,06,9.50
2013,05,01,13,07,9.50
2013,05,01,13,08,9.40
2013,05,01,13,09,9.40
2013,05,01,13,10,9.40
2013,05,01,13,11,9.40
2013,05,01,13,12,9.50
2013,05,01,13,13,9.60
2013,05,01,13,14,9.60
2013,05,01,13,15,9.70
2013,05,01,13,16,9.80
2013,05,01,13,17,9.80
2013,05,01,13,18,9.80
2013,05,01,13,19,9.80
2013,05,01,13,20,9.70
2013,05,01,13,21,9.60
2013,05,01,13,22,9.60
2013,05,01,13,23,9.70
2013,05,01,13,24,9.70
2013,05,01,13,25,9.80
2013,05,01,13,26,9.80
2013,05,01,13,27,9.80
2013,05,01,13,28,9.80
2013,05,01,13,29,9.90
2013,05,01,13,30,10.00
2013,05,01,13,31,10.10
2013,05,01,13,32,10.00
2013,05,01,13,33,10.00
2013,05,01,13,34,10.10
2013,05,01,13,35,10.00
2013,05,01,13,36,10.00
2013,05,01,13,37,10.00
2013,05,01,13,38,10.00
2013,05,01,13,39,10.10
2013,05,01,13,40,10.20
2013,05,01,13,41,10.20
2013,05,01,13,42,10.20
2013,05,01,13,43,10.20
2013,05,01,13,44,10.20
2013,05,01,13,45,10.10
2013,05,01,13,46,9.90
2013,05,01,13,47,9.70
2013,05,01,13,48,9.60
2013,05,01,13,49,9.60
2013,05,01,13,50,9.60
2013,05,01,13,51,9.70
2013,05,01,13,52,9.70
2013,05,01,13,53,9.80
2013,05,01,13,54,9.80
2013,05,01,13,55,9.90
2013,05,01,13,56,10.00
2013,05,01,13,57,10.10
2013,05,01,13,58,10.10
2013,05,01,13,59,10.10
2013,05,01,14,00,10.10
2013,05,01,14,01,10.00
2013,05,01,14,02,10.00
2013,05,01,14,03,10.00
2013,05,01,14,04,10.00
2013,05,01,14,05,9.90
2013,05,01,14,06,9.80
2013,05,01,14,07,9.80
2013,05,01,14,08,9.80
2013,05,01,14,09,9.70
2013,05,01,14,10,9.70
2013,05,01,14,11,9.70
2013,05,01,14,12,9.60
2013,05,01,14,13,9.60
2013,05,01,14,14,9.60
2013,05,01,14,15,9.60
2013,05,01,14,16,9.50
2013,05,01,14,17,9.50
2013,05,01,14,18,9.50
2013,05,01,14,19,9.60
2013,05,01,14,20,9.70
2013,05,01,14,21,9.70
2013,05,01,14,22,9.70
2013,05,01,14,23,9.70
2013,05,01,14,24,9.70
2013,05,01,14,25,9.60
2013,05,01,14,26,9.60
2013,05,01,14,27,9.60
2013,05,01,14,28,9.60
2013,05,01,14,29,9.70
2013,05,01,14,30,9.70
2013,05,01,14,31,9.70
2013,05,01,14,32,9.80
2013,05,01,14,33,9.80
2013,05,01,14,34,9.70
2013,05,01,14,35,9.60
2013,05,01,14,36,9.60
2013,05,01,14,37,9.70
2013,05,01,14,38,9.70
2013,05,01,14,39,9.60
2013,05,01,14,40,9.60
2013,05,01,14,41,9.50
2013,05,01,14,42,9.50
2013,05,01,14,43,9.50
2013,05,01,14,44,9.50
2013,05,01,14,45,9.60
2013,05,01,14,46,9.70
2013,05,01,14,47,9.80
2013,05,01,14,48,9.70
2013,05,01,14,49,9.70
2013,05,01,14,50,9.70
2013,05,01,14,51,9.70
2013,05,01,14,52,9.60
2013,05,01,14,53,9.60
2013,05,01,14,54,9.60
2013,05,01,14,55,9.60
2013,05,01,14,56,9.60
2013,05,01,14,57,9.60
2013,05,01,14,58,9.70
2013,05,01,14,59,9.70
2013,05,01,15,00,9.80
2013,05,01,15,01,9.80
2013,05,01,15,02,9.90
2013,05,01,15,03,9.80
2013,05,01,15,04,9.80
2013,05,01,15,05,9.70
2013,05,01,15,06,9.70
2013,05,01,15,07,9.60
2013,05,01,15,08,9.50
2013,05,01,15,09,9.50
2013,05,01,15,10,9.60
2013,05,01,15,11,9.60
2013,05,01,15,12,9.70
2013,05,01,15,13,9.70
2013,05,01,15,14,9.70
2013,05,01,15,15,9.70
2013,05,01,15,16,9.80
2013,05,01,15,17,9.80
2013,05,01,15,18,9.80
2013,05,01,15,19,9.90
2013,05,01,15,20,9.90
2013,05,01,15,21,9.90
2013,05,01,15,22,9.90
2013,05,01,15,23,9.80
2013,05,01,15,24,9.80
2013,05,01,15,25,9.80
2013,05,01,15,26,9.80
2013,05,01,15,27,9.80
2013,05,01,15,28,9.80
2013,05,01,15,29,9.90
2013,05,01,15,30,9.90
2013,05,01,15,31,9.90
2013,05,01,15,32,9.90
2013,05,01,15,33,9.90
2013,05,01,15,34,9.90
2013,05,01,15,35,9.90
2013,05,01,15,36,9.90
2013,05,01,15,37,10.00
2013,05,01,15,38,10.00
2013,05,01,15,39,10.00
2013,05,01,15,40,9.90
2013,05,01,15,41,9.90
2013,05,01,15,42,9.90
2013,05,01,15,43,9.90
2013,05,01,15,44,9.90
2013,05,01,15,45,9.90
2013,05,01,15,46,9.90
2013,05,01,15,47,9.90
2013,05,01,15,48,9.90
2013,05,01,15,49,9.80
2013,05,01,15,50,9.80
2013,05,01,15,51,9.70
2013,05,01,15,52,9.70
2013,05,01,15,53,9.60
2013,05,01,15,54,9.60
2013,05,01,15,55,9.70
2013,05,01,15,56,9.70
2013,05,01,15,57,9.80
2013,05,01,15,58,9.80
2013,05,01,15,59,9.80
2013,05,01,16,00,9.80
2013,05,01,16,01,9.80
2013,05,01,16,02,9.70
2013,05,01,16,03,9.80
2013,05,01,16,04,9.70
2013,05,01,16,05,9.70
2013,05,01,16,06,9.70
2013,05,01,16,07,9.70
2013,05,01,16,08,9.80
2013,05,01,16,09,9.80
2013,05,01,16,10,9.80
2013,05,01,16,11,9.80
2013,05,01,16,12,9.80
2013,05,01,16,13,9.90
2013,05,01,16,14,9.90
2013,05,01,16,15,9.80
2013,05,01,16,16,9.80
2013,05,01,16,17,9.90
2013,05,01,16,18,9.90
2013,05,01,16,19,9.90
2013,05,01,16,20,9.90
2013,05,01,16,21,9.90
2013,05,01,16,22,9.90
2013,05,01,16,23,10.00
2013,05,01,16,24,9.90
2013,05,01,16,25,9.80
2013,05,01,16,26,9.80
2013,05,01,16,27,9.70
2013,05,01,16,28,9.70
2013,05,01,16,29,9.70
2013,05,01,16,30,9.80
2013,05,01,16,31,9.80
2013,05,01,16,32,9.80
2013,05,01,16,33,9.80
2013,05,01,16,34,9.90
2013,05,01,16,35,10.00
2013,05,01,16,36,10.10
2013,05,01,16,37,10.10
2013,05,01,16,38,10.10
2013,05,01,16,39,10.20
2013,05,01,16,40,10.20
2013,05,01,16,41,10.10
2013,05,01,16,42,10.10
2013,05,01,16,43,10.20
2013,05,01,16,44,10.20
2013,05,01,16,45,10.20
2013,05,01,16,46,10.20
2013,05,01,16,47,10.20
2013,05,01,16,48,10.20
2013,05,01,16,49,10.20
2013,05,01,16,50,10.20
2013,05,01,16,51,10.20
2013,05,01,16,52,10.30
2013,05,01,16,53,10.30
2013,05,01,16,54,10.30
2013,05,01,16,55,10.20
2013,05,01,16,56,10.20
2013,05,01,16,57,10.10
2013,05,01,16,58,10.10
2013,05,01,16,59,10.10
2013,05,01,17,00,10.10
2013,05,01,17,01,10.10
2013,05,01,17,02,10.20
2013,05,01,17,03,10.20
2013,05,01,17,04,10.20
2013,05,01,17,05,10.20
2013,05,01,17,06,10.30
2013,05,01,17,07,10.30
2013,05,01,17,08,10.30
2013,05,01,17,09,10.30
2013,05,01,17,10,10.40
2013,05,01,17,11,10.40
2013,05,01,17,12,10.50
2013,05,01,17,13,10.50
2013,05,01,17,14,10.60
2013,05,01,17,15,10.50
2013,05,01,17,16,10.50
2013,05,01,17,17,10.50
2013,05,01,17,18,10.50
2013,05,01,17,19,10.40
2013,05,01,17,20,10.40
2013,05,01,17,21,10.40
2013,05,01,17,22,10.40
2013,05,01,17,23,10.30
2013,05,01,17,24,10.30
2013,05,01,17,25,10.20
2013,05,01,17,26,10.20
2013,05,01,17,27,10.30
2013,05,01,17,28,10.30
2013,05,01,17,29,10.30
2013,05,01,17,30,10.30
2013,05,01,17,31,10.30
2013,05,01,17,32,10.30
2013,05,01,17,33,10.30
2013,05,01,17,34,10.30
2013,05,01,17,35,10.30
2013,05,01,17,36,10.30
2013,05,01,17,37,10.20
2013,05,01,17,38,10.30
2013,05,01,17,39,10.20
2013,05,01,17,40,10.20
2013,05,01,17,41,10.20
2013,05,01,17,42,10.20
2013,05,01,17,43,10.20
2013,05,01,17,44,10.30
2013,05,01,17,45,10.40
2013,05,01,17,46,10.40
2013,05,01,17,47,10.50
2013,05,01,17,48,10.50
2013,05,01,17,49,10.60
2013,05,01,17,50,10.70
2013,05,01,17,51,10.70
2013,05,01,17,52,10.70
2013,05,01,17,53,10.70
2013,05,01,17,54,10.70
2013,05,01,17,55,10.70
2013,05,01,17,56,10.80
2013,05,01,17,57,10.80
2013,05,01,17,58,10.80
2013,05,01,17,59,10.80
2013,05,01,18,00,10.80
2013,05,01,18,01,10.80